TimeEDT,TemperatureF,Dew PointF,Humidity,Sea Level PressureIn,VisibilityMPH,Wind Direction,Wind SpeedMPH,Gust SpeedMPH,PrecipitationIn,Events,Conditions,WindDirDegrees,DateUTC
12:53 AM,28.9,21.9,75,30.44,10.0,WNW,3.5,-,N/A,,Clear,300,2012-10-13 04:53:00
1:53 AM,27.0,24.1,89,30.44,10.0,Calm,Calm,-,N/A,,Clear,0,2012-10-13 05:53:00
2:53 AM,25.0,21.9,88,30.43,10.0,Calm,Calm,-,N/A,,Clear,0,2012-10-13 06:53:00
3:53 AM,25.0,24.1,96,30.45,10.0,Calm,Calm,-,N/A,,Clear,0,2012-10-13 07:53:00
4:53 AM,24.8,21.2,86,30.44,10.0,Calm,Calm,-,N/A,,Clear,0,2012-10-13 08:53:00
5:53 AM,21.9,21.9,100,30.48,10.0,Calm,Calm,-,N/A,,Clear,0,2012-10-13 09:53:00
6:53 AM,21.9,21.0,96,30.49,10.0,Calm,Calm,-,N/A,,Clear,0,2012-10-13 10:53:00
7:53 AM,26.1,23.0,88,30.50,10.0,Calm,Calm,-,N/A,,Clear,0,2012-10-13 11:53:00
8:53 AM,30.9,28.0,89,30.51,10.0,SSW,5.8,-,N/A,,Clear,200,2012-10-13 12:53:00
10:53 AM,39.9,28.0,63,30.49,10.0,SSE,4.6,-,0.00,,Clear,160,2012-10-13 14:53:00
11:53 AM,43.0,28.0,56,30.47,10.0,South,6.9,-,N/A,,Clear,190,2012-10-13 15:53:00
12:53 PM,46.9,27.0,46,30.43,10.0,SSE,9.2,-,N/A,,Clear,150,2012-10-13 16:53:00
1:53 PM,48.9,26.1,41,30.39,10.0,SSE,8.1,-,N/A,,Clear,150,2012-10-13 17:53:00
2:53 PM,50.0,25.0,38,30.36,10.0,South,11.5,19.6,N/A,,Clear,170,2012-10-13 18:53:00
3:53 PM,51.1,24.1,35,30.35,10.0,SSW,13.8,19.6,N/A,,Partly Cloudy,210,2012-10-13 19:53:00
4:53 PM,50.0,21.0,32,30.34,10.0,SSW,8.1,-,N/A,,Clear,200,2012-10-13 20:53:00
5:53 PM,46.9,26.1,44,30.35,10.0,South,6.9,-,N/A,,Clear,170,2012-10-13 21:53:00
6:53 PM,46.0,28.0,50,30.34,10.0,South,4.6,-,N/A,,Overcast,180,2012-10-13 22:53:00
9:53 PM,42.8,35.6,76,30.25,10.0,Calm,Calm,-,N/A,,Mostly Cloudy,0,2012-10-14 01:53:00
10:53 PM,43.0,33.1,68,30.26,10.0,Calm,Calm,-,0.00,Rain,Light Rain,0,2012-10-14 02:53:00
11:53 PM,41.0,39.0,93,30.25,10.0,Calm,Calm,-,0.00,Rain,Light Rain,0,2012-10-14 03:53:00